Погода Уля

Погода Уля : погода сейчас, прогноз погоды и архив. Всё, что Вы хотите узнать о погоде Уля!

Поиск расширенной информации на нашем сайте:

Другие новости

Новости СМИ2

Главная страница сайта

Новости сайта

02.10.2013

Напоминаем, что на нашем новом сайте вы можете получить высокодетализированные прогнозы погоды по пунктам России, СНГ и мира (включающие важные для авиации метеовеличины, такие как направление и скорость ветра, видимость, явления погоды, количество и форма облачности, нижняя и верхняя граница облачности), а также ознакомиться с разнообразными материалами по авиационной метеорологии и подборкой полезных ссылок на эту тему.

Сайт Метеоцентр.Азия посвящён разработке технологий оптимизации авиаметеорологического обслуживания, включая проектирование и перспективное создание нескольких автоматизированных авиаметеорологических систем:
- система выпуска высокодетальных прогностических карт явлений погоды для нижнего воздушного пространства по России и ближнему зарубежью;
- система верификации прогнозов TAF (выпускаемых синоптиками официальных АМСГ РФ и ближнего зарубежья) и AUTOTAF (выпускаемых сайтом Метеоцентр.Азия) - выявление ошибок, онлайн-сопоставление с фактической погодой METAR, автоматическое внесение коррективов в прогнозы при резком отклонении фактической погоды от прогноза, подсчёт оправдываемости прогнозов по элементам и в целом;
- система обработки, анализа и отображения авиаметеорологической информации для применения провайдерами метеорологической информации.


Погода Уля - сегодня

Время (UTC), дата Ветер
(°,м/с) 
Видим.   Явления Облачность Т
(°С)
Тd
(°С)
f(%) Тe
(°С)
Pmin
(гПа)
dP
(гПа)
Po
(мм)
O2
(г/м3)
Тmin Tmax R s Состояние
почвы
09 10.01.17 340 (С) 14-16{16}  20000 м    10/0 средняя 
[Ac As]
-24.4 -30 60 -37  1016.1  762  339    -24       
15 10.01.17 340 (С) 16-18{18}  10 км  слаб. снег  10/0 средняя 
[As op]
-19.4 -21 87 -31  1014.3  760  331           
21 10.01.17 340 (С) 9-10{18}  10 км  слаб. снег  10/0 средняя 
[As op]
-13.4 -15.4 85 -21  1016.1  762  324  -24.4    равномерный
сухой снег
100% 
15 11.01.17 360 (С) 4000 м  слаб. снег  10/0 средняя 
[As op]
-7.4 -8.3 93 -9  1011.8  758  315           
21 11.01.17 360 (С) 4000 м  слаб. снег  10/0 средняя 
[As op]
-4 -14 46 -7  1013.2  759  312  -9.9    равномерный
сухой снег
100% 
03 12.01.17 360 (С) 4000 м  слаб. снег  10/0 средняя 
[As op]
-11.1 -12.4 90 -15  1014.9  761  321           
09 12.01.17 020 (С) 10-14{14}  10 км  слаб. снег  10/0 средняя 
[As op]
-4 -8.1 73 -10  1017.6  763  313    -2.2  0.0     
15 12.01.17 020 (С) 14-18{18}  10 км  позёмок  10/0 средняя 
[As op]
-4.2 -11.1 59 -11  1018.9  764  314           
21 12.01.17 020 (С) 14-18{18}  10 км  позёмок  10/0 средняя 
[As op]
-4.8 -13.6 50 -12  1020.8  765  315  -5.4    0.0  10  равномерный
сухой снег
100% 
09 13.01.17 020 (С) 10-12{16}  4000 м  слаб. ливневой снег  10/10 600 м кучево-дожд. 
[Cb cap]
-4.9 -6.2 91 -11  1028.5  771  317    -4.6     
15 13.01.17 020 (С) 5{12}  4000 м  {ливн. осадки}  10/0 средняя 
[As op]
-6.7 -9.1 83 -11  1029.2  771  320           
21 13.01.17 340 (С) 20000 м    6/0 верхняя 
[Ci fib]
-8.2 -13.4 66 -10  1028.5  771  321  -8.8    0.0  14  равномерный
сухой снег
100% 
21 14.01.17 340 (С) 20000 м    ясно 
-12.7 -21 50 -16  1029.5  772  328  -13.9      14  равномерный
сухой снег
100% 
03 15.01.17 360 (С) 20000 м    ясно 
-11.4 -19.8 50 -15  1028.3  771  326           
21 15.01.17 340 (С) 20000 м  позёмок  ясно 
-17.8 -26.9 45 -24  1027.8  770  334  -18.5      14  равномерный
сухой снег
100% 
03 16.01.17 340 (С) 20000 м  позёмок  ясно 
-16.2 -25.4 45 -24  1028.4  771  332           
09 16.01.17 340 (С) 20000 м    ясно 
-17 -26.1 45 -24  1029.4  772  333    -15.8       
15 16.01.17 340 (С) 20000 м    ясно 
-18.6 -27.6 45 -26  1029.3  771  335           
21 16.01.17 360 (С) 20000 м    ясно 
-20.6 -28.3 50 -25  1029.5  772  338  -21.1      14  равномерный
мокрый или
старый снег
100% 
03 17.01.17 340 (С) 20000 м    3/0 верхняя 
[Ci fib]
-19.1 -26.9 50 -24  1029.2  771  336           
09 17.01.17 340 (С) 20000 м    ясно 
-20.4 -28.1 50 -29  1028.8  771  338    -18.7       
15 17.01.17 340 (С) 20000 м    ясно 
-21.2 -29.9 45 -26  1027.8  770  338           
21 17.01.17 340 (С) 20000 м    ясно 
-23 -29.6 55 -28  1026.5  769  340  -23.7      14  равномерный
мокрый или
старый снег
100% 
09 18.01.17 340 (С) 20000 м    ясно 
-20.6 -29.5 45 -28  1023.5  767  336    -19.8       
15 18.01.17 340 (С) 20000 м    ясно 
-22.4 -31.1 45 -31  1022.5  766  338           
Время (UTC), дата Ветер
(°,м/с) 
Видим.   Явления Облачность Т
(°С)
Тd
(°С)
f(%) Тe
(°С)
Pmin
(гПа)
dP
(гПа)
Po
(мм)
O2
(г/м3)
Тmin Tmax R s Состояние
почвы

Для получения пояснительной информации подведите курсор к названию столбца.

ПОГОДА Уля - архив

Всё, что Вы хотите узнать о погоде Уля - удобно и подробно!

Выберите нужную дату (начиная с 1 января 2015* года) и нажмите кнопку "Найти".
Будут отображены архивные сводки погоды по пункту Уля, начиная с указанной даты.


Отображать данные в формате CSV (для использования в таблицах Excel)


Внимание! Наш архив погоды предназначен исключительно для личного некоммерческого использования в познавательных целях. Если Вам необходимы официальные справки о состоянии погоды (для производственных, юридических, коммерческих и т.п. целей), обращайтесь в органы Росгидромета.

*Примечание: данная дата относится к архиву по метеостанциям СССР (Россия, СНГ, Балтия).
Архив по метеостанциям Зарубежной Европы и Азии (кроме Китая) хранится 10 дней, по другим регионам земного шара (Китай, Африка, Америка, Австралия, Океания) - 1 день.

Уля - район местоположения метеостанции


Название, широта, долгота, высота метеостанции:
Уля 58.8°ш. 141.7°д. 4 м над ур. моря [Российская Федерация]

Дополнительная информация

В oтличие oт бoльшинства пoгoдных сайтoв мы публикуем пoдрoбную метеoинфoрмацию в детальнoм прoфессиoнальнoм фoрмате.

Характеристики температуры и влажнoсти вoздуха измеряются на высoте 2 м в тени вдали oт зданий и деревьев.
Скoрoсть ветра измеряется на высoте 10 м (на урoвне рoста челoвека скoрoсть ветра ниже в 1.5-2 раза). Если метеoстанция нахoдится в гoрoде или в лесу, тo скoрoсть ветра занижена на 2-4 м/с пo сравнению с oткрытым местoм. Скoрoсть ветра над акватoриями крупных рек и oзёр, а также на вершинах хoлмoв на 2-5 м/с выше, чем в oбычных услoвиях.
Атмoсфернoе давление в разных тoчках местнoсти мoжет значительнo oтличаться oт давления на метеoстанции, в зависимoсти oт услoвий рельефа (при пoдъёме на 10 м давление пoнижается примернo на 1 мм рт.ст.).